User: anonymous   Login
Location: Columbia
(38.9520°N, 92.3340°W)
Time: 18:25:29
(UTC-05:00)
Language:

Cosmos 2100 Rocket - Orbit

View from above orbital plane
View from above orbital plane
View from above satellite
View from above satellite

Ground track
Ground track

The orbit data is extracted from the following two-line orbital elements,

1 20805U 90083B   16238.65388543 -.00000024 +00000-0 -40857-4 0  9993
2 20805 082.9351 280.3535 0031630 137.4525 337.7165 13.75806766302490
Epoch (UTC): 25 August 2016 15:41:35
Eccentricity: 0.0031630
inclination: 82.9351°
perigee height: 955 km
apogee height: 1002 km
right ascension of ascending node: 280.3535°
argument of perigee: 137.4525°
revolutions per day: 13.75806766
mean anomaly at epoch: 337.7165°
orbit number at epoch: 30249

The dashed part of the orbit path shows where the satellite is in the earth's shadow,  

DLR